Regional Weather Roundup
Issued by NWS

Home | Current Version | Previous Version | Text Only | Print | Product List | Glossary On
Versions: 1 2 3 4 5 6 7 8 9 10 11 12 13 14 15 16 17 18 19 20 21
000
ASUS42 KKEY 221310
RWRKEY

FLORIDA REGIONAL WEATHER ROUNDUP FOR THE FLORIDA KEYS
NATIONAL WEATHER SERVICE KEY WEST FLORIDA
800 AM EST THU FEB 22 2018

...SOUTH FLORIDA AND THE KEYS...

CITY           SKY/WX    TMP DP  RH WIND       PRES   REMARKS
FORT MYERS     FAIR      69  68  96 E6        30.34R
SW REGIONAL AP FAIR      68  68 100 E7        30.35R
NAPLES         FAIR      69  68  96 E8        30.34R
MIAMI          CLOUDY    75  69  81 E17       30.34R
WEST KENDALL   CLOUDY    73  69  87 E15       30.34R
HOMESTEAD      CLOUDY    72  70  92 NE13      30.32R
MARATHON       FAIR      76  69  79 E8        30.29R
KEY WEST INTL  RAIN      74  71  91 E13G20    30.29R

...INTERNATIONAL WEATHER...

CITY           SKY/WX    TMP DP  RH WIND       PRES   REMARKS
NASSAU BAHAMAS MOSUNNY   79  66  65 E9        30.35R
CANCUN MEXICO  PTCLDY    77  70  78 E8        30.17R
COZUMEL MEXICO PTCLDY    72  68  88 SE2       30.14R

ADJACENT COASTAL WATERS...

STATION/POSITION TIME  SKY/WX   TEMP    WIND        PRES    WAVE
                                AIR SEA DIR/SP/G            HT/PER
                 (UTC)          (F)     (DEG/KT/KT) (MB)    (FT/S)
PULASKI SHOAL LI 1300            74      70/ 20/ 22 1025.4R
SAND KEY         1250            75                 1025.8R
LONG KEY         1200                   100/ 15       N/A
MOLASSES REEF    1200            76 77  110/ 21/ 24 1025.9R
FOWEY ROCKS      1200            75 76   70/ 21/ 24 1027.1R
Buoy 42097       1230               74                N/A     4/ 5

$$




USA.gov is the U.S. government's official web portal to all federal, state and local government web resources and services.